Regional Weather Roundup
Issued by NWS Goodland, KS

Home | Current Version | Previous Version | Text Only | Print | Product List | Glossary Off
Versions: 1 2 3 4 5 6 7 8 9 10 11 12 13 14 15 16 17 18 19 20 21 22 23 24 25 26 27 28 29 30 31 32 33 34 35 36 37 38 39 40 41 42 43 44 45 46 47 48 49 50

057
ASUS43 KGLD 311959
RWRGLD

GOODLAND FORECAST AREA HOURLY WEATHER ROUNDUP
NATIONAL WEATHER SERVICE GOODLAND KS
200 PM MDT TUE MAY 31 2016

...OFFICIAL OBSERVATIONS...

CITY           SKY/WX    TMP DP  RH WIND       PRES   REMARKS
GOODLAND KS    SUNNY     68  48  48 NE6       30.04F
HILL CITY KS   SUNNY     74  51  44 N9        30.00
IMPERIAL NEB   MOSUNNY   66  45  46 N8        30.06F
MCCOOK NEB     SUNNY     71  45  39 N9        30.02F
AKRON CO       MOSUNNY   65  45  48 VRB6      30.08F
BURLINGTON CO  MOSUNNY   69  45  41 MISG      30.06F
LIMON CO       PTSUNNY   63  49  60 E8        30.09F
$$

...UNOFFICIAL OBSERVATIONS...

CITY           SKY/WX    TMP DP  RH WIND       PRES   REMARKS
GOVE KS          N/A    N/A N/A N/A MISG        N/A
LENORA KS        N/A     70  32  24 MISG        N/A
SHARON SPRINGS   N/A     68  54  60 NE9G17      N/A
KIT CARSON CO    N/A     66  50  56 CALM        N/A
YUMA CO          N/A     64  48  56 CALM        N/A
$$




USA.gov is the U.S. government's official web portal to all federal, state and local government web resources and services.